Regional Weather Roundup
Issued by NWS

Home | Current Version | Previous Version | Text Only | Print | Product List | Glossary Off
Versions: 1 2 3 4 5 6 7 8 9 10 11 12 13 14 15 16 17 18 19 20 21 22 23 24 25 26 27 28 29 30 31 32 33 34 35 36 37 38 39 40 41 42 43 44 45 46 47 48 49 50

705
ASUS44 KJAN 012210
RWRMS

MISSISSIPPI HOURLY WEATHER ROUNDUP
NATIONAL WEATHER SERVICE JACKSON MS
500 PM CDT WED OCT 01 2014

NOTE: "FAIR: INDICATES FEW OR NO CLOUDS BELOW 12,000 FEET WITH NO
SIGNIFICANT WEATHER AND/OR OBSTRUCTIONS TO VISIBILITY.

MSZ001>002-007>008-010>013-018>021-025>028-034>036-012300-
NORTHWEST MISSISSIPPI

CITY           SKY/WX    TMP DP  RH WIND       PRES   REMARKS
CLARKSDALE     PTSUNNY   88  64  45 SE9       29.86S
CLEVELAND      MOCLDY    89  64  43 S12       29.84S HX  91
GREENWOOD      SUNNY     88  64  44 SW9       29.87R
GREENVILLE     MOSUNNY   91  63  39 S14       29.83S HX  92
GRENADA        FAIR      88  61  40 SE8       29.88S
OLIVE BRANCH   PTSUNNY   84  64  51 S9        29.89S
OXFORD         FAIR      82  63  51 SE5       29.91S
TUNICA         CLOUDY    82  64  54 E8        29.87S
$$

MSZ003>006-009-014>017-022>024-029>033-037>039-012300-
NORTHEAST MISSISSIPPI

CITY           SKY/WX    TMP DP  RH WIND       PRES   REMARKS
COLUMBUS AFB   SUNNY     87  59  38 S6        29.90S
CORINTH        FAIR      86  55  35 S7        29.90S
GOLDN TRIANGLE MOSUNNY   88  59  37 SE7       29.89S
STARKVILLE     FAIR      88  59  37 SE6       29.89S
TUPELO         SUNNY     87  56  34 S8        29.90R
$$

MSZ040-058-012300-
CENTRAL MISSISSIPPI

CITY           SKY/WX    TMP DP  RH WIND       PRES   REMARKS
JACKSON INTL   MOSUNNY   87  66  49 SE8       29.88R
JACKSON HAWKNS MOSUNNY   87  66  49 VRB7      29.88S
MERIDIAN KEY   SUNNY     87  59  38 SE3       29.90S
MERIDIAN NAS   MOSUNNY   87  60  40 VRB3      29.91S
RAYMOND        FAIR      88  82  84 SE9       29.87S HX 108
VICKSBURG      MOSUNNY   90  67  46 S7        29.85S HX  93
$$

MSZ059>079-012300-
SOUTH MISSISSIPPI

CITY           SKY/WX    TMP DP  RH WIND       PRES   REMARKS
BROOKHAVEN     FAIR      88  72  58 SE8       29.90S HX  94
COLUMBIA       FAIR      84  72  65 S9        29.88S
HATTIESBURG    MOSUNNY   86  69  56 S10       29.91S HX  90
MCCOMB         PTSUNNY   83  71  67 S9        29.89S
NATCHEZ        MOSUNNY   84  73  70 SE7       29.87S HX  91
PINE BELT      SUNNY     86  64  48 SE9       29.93R
$$

MSZ080>082-012300-
COASTAL MISSISSIPPI

CITY           SKY/WX    TMP DP  RH WIND       PRES   REMARKS
BAY ST LOUIS   PTSUNNY   81  70  69 SE6       29.91S
BILOXI         PTSUNNY   82  74  76 SE8       29.91S
PASCAGOULA     PTSUNNY   81  73  76 SE8       29.92S
GULFPORT       PTSUNNY   81  73  76 SE13      29.91S
$$



USA.gov is the U.S. government's official web portal to all federal, state and local government web resources and services.